RH
14 14 12 11 12 14 16 17 17 17 18 19 21 24 28 32 30 27 29 26 23 23 23 24 25 25 27 26 23 21 20 22 23 25 31 39 41 41 41 42 42 41 40 40 41 43 45 47 48 49 51 52 52 52 53 52 52 51 50 50 49 49 49 49 49 48 48 47 47 46 46 45 44 43 41 39 35 28 20 15 11 8 7 6 5 5
12 11 9 10 12 13 14 15 16 17 18 20 23 25 29 32 27 24 25 23 23 25 26 27 27 28 30 27 24 24 24 26 26 28 35 41 42 42 43 42 42 42 42 43 45 47 49 51 52 54 54 54 54 54 53 53 52 52 51 51 51 51 51 51 50 50 49 49 48 47 45 44 43 41 39 35 27 17 10 8 7 7 6 6 5 5
9 8 9 11 11 12 14 15 15 17 20 23 26 29 30 28 25 24 25 25 26 28 29 28 28 32 31 26 28 30 29 29 30 32 38 43 43 43 43 43 43 44 45 46 49 51 53 55 56 56 56 55 55 55 54 54 54 54 54 54 54 54 53 53 52 51 50 49 46 43 40 38 36 32 27 20 14 9 7 7 8 8 7 7 6 6
9 9 10 11 12 14 16 17 18 20 22 25 28 29 27 24 25 26 26 28 30 30 31 29 31 35 34 31 33 33 32 32 33 36 41 45 45 44 44 45 46 46 48 50 52 55 57 58 58 58 57 57 57 57 57 58 58 58 58 57 57 56 55 54 53 52 49 44 38 31 26 22 19 17 13 10 8 8 9 9 9 9 9 8 7 7
10 10 12 13 14 16 17 19 20 22 25 26 27 25 25 25 27 29 29 31 31 30 30 29 33 37 36 38 36 34 35 35 37 41 43 45 45 45 46 46 49 51 53 55 57 59 60 60 61 60 60 60 59 60 62 62 62 62 61 60 60 58 56 54 51 48 42 33 25 18 14 11 10 10 10 10 10 10 11 11 11 11 10 9 8 8
11 13 14 15 17 18 19 20 23 26 27 26 25 25 26 27 28 30 31 32 32 31 30 29 41 47 40 39 40 39 40 38 41 45 44 46 47 47 49 50 54 57 59 61 62 63 64 64 64 64 64 64 64 66 66 67 66 65 64 62 60 57 55 51 44 37 27 18 14 12 11 11 11 12 12 13 13 14 14 14 14 13 12 11 10 10
14 16 16 17 18 18 19 21 24 27 28 27 26 26 27 27 29 31 31 34 34 34 33 32 44 51 44 45 47 45 44 40 44 48 47 49 51 52 55 57 60 63 64 66 66 67 67 66 67 68 68 68 70 71 70 70 68 67 65 61 59 55 49 41 30 21 15 12 13 13 14 15 16 16 16 17 17 17 17 17 17 16 14 13 12 11
16 17 16 16 16 16 18 20 24 27 29 29 27 27 27 27 29 31 31 35 35 35 35 33 39 45 46 53 55 50 47 44 47 51 52 55 57 59 62 63 66 68 69 70 70 70 69 69 71 72 72 72 74 75 73 72 69 67 65 61 55 46 35 25 18 15 14 15 16 17 18 19 19 19 19 20 20 19 19 19 19 18 17 15 14 13
16 15 15 16 16 19 21 24 28 29 29 28 27 27 27 29 32 33 33 34 36 41 40 33 37 48 54 58 60 57 51 49 53 55 58 62 64 66 68 69 71 72 73 73 72 72 71 72 75 75 76 78 79 78 75 72 69 66 63 55 42 31 23 18 16 16 17 19 19 19 19 19 19 19 19 19 18 18 17 17 18 17 17 16 15 15
16 16 16 18 20 23 24 26 28 27 26 26 25 26 28 33 33 30 33 36 42 50 44 33 37 52 60 60 62 64 57 52 56 60 64 68 70 72 73 74 76 76 75 74 73 72 73 77 80 82 84 84 82 77 73 70 66 61 51 39 28 22 20 19 19 19 19 19 18 17 17 16 16 16 15 15 15 15 15 15 16 16 17 17 16 16
17 17 17 21 24 25 24 27 27 25 25 24 26 30 32 33 31 32 40 40 47 56 43 34 38 47 58 62 60 64 61 55 55 60 67 72 74 76 77 78 78 76 75 75 74 74 79 85 89 91 90 85 79 73 70 65 58 48 36 27 23 21 21 20 20 20 18 17 15 15 15 14 15 14 14 14 14 15 15 15 16 16 17 17 17 17
18 17 19 24 25 24 25 28 27 24 25 26 31 34 32 32 29 36 45 42 54 65 44 34 42 44 54 61 59 63 65 64 61 62 68 73 77 79 79 79 78 77 77 76 77 80 88 95 95 92 86 79 74 69 63 55 45 34 26 22 22 21 22 21 19 17 15 14 15 15 16 15 16 16 15 15 15 16 16 16 17 17 18 18 18 18
17 17 24 27 24 24 26 27 24 24 27 30 34 35 37 45 41 44 55 51 56 60 41 36 45 46 54 59 58 61 64 70 73 72 74 77 79 81 80 80 78 77 78 79 84 90 96 97 91 84 78 72 68 60 50 41 31 25 23 22 22 21 20 18 16 15 15 16 17 17 17 16 16 16 16 16 16 17 17 18 18 18 19 19 19 18
19 20 28 27 23 24 25 25 24 26 30 32 35 35 40 51 56 63 72 61 50 44 36 40 45 47 58 63 63 66 67 73 80 80 80 81 81 82 80 79 79 80 83 86 94 98 95 90 82 76 70 63 55 45 35 29 24 23 23 22 21 19 17 16 16 17 17 18 18 18 17 17 16 16 17 17 17 17 18 18 18 18 18 17 16 15
27 27 27 25 24 24 24 25 27 29 31 32 35 37 39 42 45 58 65 55 48 46 40 41 47 53 64 69 71 75 76 80 84 84 84 83 82 82 80 81 85 90 94 96 98 94 87 80 74 68 61 51 40 31 26 24 24 23 23 21 19 18 17 18 19 19 20 19 19 18 18 17 18 17 17 17 17 17 17 17 17 17 16 15 13 12
32 29 24 24 24 24 25 26 28 29 31 35 35 36 40 39 36 44 51 47 51 60 53 48 56 63 67 74 78 80 83 85 86 86 85 85 84 84 86 90 95 99 99 96 92 85 77 71 66 58 49 39 30 25 25 25 25 23 22 20 19 19 20 21 21 20 20 19 18 18 18 17 17 16 16 16 15 14 14 13 13 13 12 11 10 9
35 30 23 24 23 24 27 28 30 32 33 36 38 37 39 41 41 44 47 45 52 66 60 52 69 79 78 84 85 82 85 85 85 87 86 86 87 90 94 97 98 97 93 89 83 75 68 63 58 49 38 30 26 26 27 26 25 23 21 21 20 21 22 21 21 19 18 18 17 16 16 15 14 14 13 13 12 11 10 10 9 9 8 8 7 7
37 31 23 23 25 26 29 31 33 35 35 37 39 41 42 43 47 47 50 57 64 74 67 55 72 88 84 84 85 84 87 87 87 89 88 90 92 95 98 96 94 91 87 83 75 66 62 59 52 42 33 29 28 29 28 26 24 23 23 23 23 22 21 20 19 18 16 15 14 13 13 12 12 12 11 11 10 10 9 8 8 7 7 7 7 7
37 36 29 26 28 29 30 33 35 34 37 39 40 43 44 47 52 49 53 63 67 78 82 67 70 79 75 75 80 85 91 91 89 91 93 96 97 97 96 93 91 88 83 77 68 62 63 59 49 38 32 31 31 29 27 25 25 25 25 24 23 21 20 18 16 15 14 12 12 11 11 11 11 11 11 10 10 10 10 10 9 9 9 9 9 9
37 42 38 30 30 32 31 34 37 37 39 40 41 45 47 50 54 50 51 55 58 76 90 79 74 77 73 72 75 83 93 94 93 95 98 98 97 96 93 92 91 86 80 73 65 65 66 57 43 35 32 32 31 28 26 26 26 26 25 23 21 19 16 14 13 12 11 11 11 11 11 12 12 12 12 12 12 12 12 12 12 12 12 12 12 12
36 43 42 33 31 33 33 36 39 39 40 41 45 49 50 51 52 52 53 49 51 73 90 88 82 77 76 80 81 84 91 93 95 98 99 98 96 95 94 94 90 84 79 73 68 70 65 50 38 34 33 32 29 27 26 27 27 25 23 20 17 14 12 11 11 11 12 12 12 13 13 13 13 13 13 13 13 13 13 14 14 14 14 14 14 14
37 45 47 41 35 32 33 34 36 38 42 46 49 51 52 53 52 58 64 54 48 60 74 82 83 79 81 88 92 94 94 95 98 99 99 97 95 95 95 94 88 81 78 73 71 71 59 44 37 35 33 31 28 28 28 27 26 22 18 15 12 12 11 12 12 12 13 12 12 13 12 12 12 12 12 12 12 12 12 13 13 13 13 13 13 13
39 46 50 45 39 35 34 34 38 44 47 48 51 51 52 55 55 60 67 61 55 57 60 69 80 85 86 87 92 98 98 99 100 98 97 96 95 95 93 89 84 78 77 77 77 69 51 39 37 34 31 30 29 29 28 24 20 15 12 11 11 12 12 13 13 12 12 12 11 12 11 12 12 12 13 12 13 13 13 13 13 13 13 12 12 12
42 47 51 47 39 33 33 37 42 46 47 48 52 53 53 57 59 60 63 62 63 64 62 68 79 87 90 87 88 93 94 96 100 98 98 96 93 91 88 84 81 78 83 86 77 59 43 38 36 32 30 30 29 27 22 17 13 11 11 12 12 12 12 12 11 11 11 11 12 13 12 13 13 13 14 14 14 14 13 13 13 13 13 13 13 12
45 47 51 54 52 47 44 45 44 45 49 50 51 53 57 62 64 64 65 65 67 66 63 71 83 89 91 89 88 92 94 98 100 99 97 94 90 89 86 84 85 87 91 84 64 47 40 37 34 31 31 29 24 19 14 12 11 11 12 12 12 12 11 11 11 12 13 13 13 14 13 14 14 14 14 14 14 15 14 14 14 14 14 13 13 13
48 48 50 57 64 67 63 58 54 56 59 55 51 55 61 66 68 67 67 68 71 72 71 80 92 95 95 94 94 97 99 99 98 96 94 92 89 87 85 86 91 92 83 65 49 42 39 35 33 32 29 22 16 13 11 12 12 12 12 11 11 11 11 12 13 13 14 14 14 14 14 14 14 14 15 15 15 15 14 14 14 14 14 13 13 13
52 49 48 51 55 57 57 55 55 60 64 62 60 61 62 63 65 68 71 73 78 82 82 90 99 99 99 99 99 100 99 97 95 92 90 87 85 86 89 95 95 82 62 48 44 42 37 34 33 28 21 14 11 11 12 12 12 11 11 11 11 12 13 14 14 14 14 14 14 14 14 15 15 15 15 15 15 15 14 14 14 13 13 13 12 12
52 47 47 49 47 47 50 52 54 60 65 67 67 66 64 64 65 71 78 81 87 93 92 94 99 99 98 99 99 98 97 94 90 86 85 85 87 93 99 99 86 63 49 45 43 39 36 34 29 20 14 11 11 12 12 12 11 11 11 12 13 14 14 14 14 14 15 15 15 15 15 15 15 15 15 14 14 14 14 14 13 13 13 12 12 12
50 49 49 51 49 47 49 52 55 61 66 70 72 72 71 71 71 77 84 87 93 99 97 96 98 98 97 96 96 94 90 85 83 85 90 93 96 100 100 87 67 50 46 44 40 37 35 29 20 13 11 11 12 12 12 11 11 11 12 13 14 14 14 15 15 15 15 15 15 15 15 15 14 14 14 14 13 13 13 13 13 13 13 12 12 12
51 51 51 55 53 48 50 55 57 61 67 72 75 77 78 79 80 84 89 91 93 95 96 97 96 96 95 92 89 84 78 75 82 92 97 98 99 98 87 68 53 47 45 41 38 36 29 19 13 11 11 12 12 12 11 10 11 13 14 14 14 14 15 15 15 15 15 15 15 15 14 14 13 13 13 13 13 13 12 13 13 12 13 12 12 12
53 53 54 58 56 51 53 58 59 63 70 75 81 83 81 82 85 86 87 88 89 90 91 90 90 90 85 76 70 69 71 77 88 96 98 96 94 84 66 53 49 47 43 39 35 28 18 13 11 11 11 12 11 10 10 11 13 14 14 14 15 15 16 16 16 15 15 14 14 14 13 13 13 13 13 13 13 13 13 13 13 13 13 13 12 13
54 56 57 60 63 59 56 62 68 69 70 78 84 81 77 82 86 85 87 92 92 92 88 82 80 78 67 57 58 67 79 87 93 98 98 91 79 64 54 51 50 45 40 34 26 18 12 11 11 11 12 11 10 10 11 13 14 14 14 15 15 16 16 15 15 14 14 14 13 13 13 13 13 13 14 14 14 14 14 14 14 14 14 14 14 14
58 60 60 64 71 65 61 71 75 65 68 83 85 77 80 86 80 73 80 90 90 86 78 71 68 65 59 61 70 77 85 94 99 100 90 73 61 58 56 54 48 41 34 25 17 12 11 10 10 11 11 10 10 12 13 14 15 14 15 16 16 16 15 15 15 14 13 13 13 13 13 13 14 14 14 15 15 15 15 15 15 16 16 16 16 16
61 63 62 68 76 71 70 79 72 64 79 90 81 81 90 85 71 67 73 77 71 63 60 60 61 61 64 75 86 91 95 100 98 87 70 58 58 62 59 52 43 33 24 16 11 10 9 10 10 10 10 10 11 13 14 14 15 15 16 16 16 15 15 14 14 13 13 14 14 14 14 14 15 15 15 16 16 16 16 17 17 18 18 18 18 18
63 65 65 71 77 78 80 82 76 76 82 73 69 86 91 73 64 67 62 57 56 53 56 61 61 65 76 89 98 100 98 91 80 67 59 59 63 61 54 46 36 24 16 12 10 9 9 10 10 9 10 12 13 15 15 15 16 16 16 16 15 15 14 14 14 14 14 14 15 15 16 16 16 17 17 17 17 17 18 19 20 21 21 21 21 22
66 67 72 75 79 85 87 81 75 70 61 56 71 88 78 58 58 63 56 53 57 60 62 65 68 80 95 99 96 92 85 75 68 65 63 62 60 55 48 39 26 17 13 10 9 9 10 10 10 10 12 13 14 15 15 15 17 16 15 15 14 14 14 13 13 14 15 16 16 17 18 18 18 18 18 18 19 19 20 22 23 24 24 23 24 28
68 71 78 80 85 93 86 67 58 51 46 63 86 85 69 59 63 72 72 65 62 66 71 73 78 87 91 88 87 89 84 75 68 66 63 59 55 50 41 29 18 12 10 9 9 10 10 10 10 12 13 14 14 15 16 16 16 15 15 14 13 13 13 13 14 16 17 18 19 19 20 20 20 20 20 21 21 22 24 26 28 28 29 28 29 37
70 75 81 83 90 93 74 56 57 56 54 73 88 80 71 67 66 75 83 75 71 77 77 72 73 77 82 87 90 88 79 68 63 64 63 59 53 44 31 20 13 9 9 9 10 10 10 10 12 13 13 15 15 16 17 16 15 15 14 13 13 13 13 15 17 18 19 20 21 22 22 23 23 24 24 24 25 26 29 32 33 33 33 36 42 52
72 77 79 83 89 83 63 56 64 60 59 77 85 74 72 74 72 80 86 81 79 79 71 70 78 86 91 91 83 75 69 65 63 66 65 58 48 35 22 13 10 9 9 10 10 10 11 12 13 14 15 16 16 17 17 15 15 15 14 13 13 14 16 19 20 21 22 23 24 24 25 26 27 28 29 28 29 33 36 38 38 37 38 47 61 71
73 77 78 79 80 70 59 60 60 52 57 77 81 73 76 80 80 87 89 81 75 74 76 83 89 88 85 79 73 72 75 75 71 67 63 54 40 26 14 9 9 9 9 10 10 11 12 13 14 15 16 17 17 17 16 15 15 15 14 14 16 18 20 22 23 24 26 26 26 27 27 29 31 32 34 34 34 39 44 44 43 41 44 59 77 84
74 79 80 78 73 66 63 65 62 56 62 74 77 78 82 83 84 90 89 81 77 78 82 84 83 79 78 79 79 76 75 77 75 68 59 47 31 18 12 9 9 10 10 10 11 12 14 15 16 17 17 18 17 16 15 15 14 14 15 17 20 22 24 25 26 28 28 28 28 29 30 33 36 37 39 40 41 44 49 48 46 47 57 73 85 89
81 84 82 79 76 73 71 71 66 62 68 78 85 86 88 89 92 89 82 80 84 84 80 79 80 82 83 83 81 76 73 74 73 65 54 40 25 15 11 10 10 10 10 12 13 15 17 18 18 18 18 17 16 16 16 15 14 16 18 21 23 25 26 28 29 29 29 29 30 31 32 35 39 42 44 45 47 50 51 49 49 58 75 86 88 91
86 86 87 87 83 79 78 79 78 77 82 92 97 95 91 92 92 87 81 82 85 84 82 84 89 91 89 83 77 73 73 74 71 63 51 34 20 14 11 10 10 11 12 15 17 18 19 19 18 18 17 17 17 16 16 15 16 19 22 24 25 27 29 30 31 30 31 32 32 33 35 37 42 47 49 50 52 54 54 50 52 67 86 91 88 92
81 86 93 93 89 87 87 86 86 89 94 99 100 96 91 86 83 84 85 85 85 87 90 94 96 95 90 81 73 71 73 75 72 62 46 29 17 13 11 11 12 14 17 19 19 18 19 19 17 17 17 17 17 17 16 17 19 22 25 26 27 29 30 31 31 31 32 34 34 35 37 39 45 50 53 55 56 56 56 55 57 72 88 90 88 95
81 90 96 95 94 94 91 88 89 92 95 96 93 87 80 75 74 81 87 88 90 93 95 96 96 92 84 77 73 73 76 77 73 60 40 24 14 11 11 13 15 18 19 19 18 19 19 18 17 17 18 18 18 18 19 21 23 25 27 28 28 30 30 30 32 33 34 35 36 37 37 40 46 52 56 60 61 60 60 59 62 76 88 87 86 96
85 92 95 95 93 89 86 87 91 92 91 91 86 75 66 65 70 78 85 88 89 91 92 93 92 86 79 76 76 78 80 81 74 55 31 16 12 12 14 17 18 19 19 18 19 19 18 17 17 17 18 18 18 20 22 25 27 27 27 28 29 30 31 32 33 34 35 36 37 38 40 41 45 51 57 61 64 65 65 66 73 87 94 86 82 91
87 90 89 90 91 88 86 89 92 90 87 81 72 62 60 65 70 74 77 77 78 80 84 86 84 80 80 83 85 88 91 87 70 42 20 12 13 15 17 19 19 19 19 20 20 18 17 18 18 17 18 18 20 23 26 27 29 29 29 30 31 31 32 34 35 36 36 37 38 39 42 44 46 51 56 61 65 66 65 69 80 96 102 88 76 83
83 83 84 90 93 88 85 87 88 85 77 67 60 59 61 64 66 67 68 69 70 74 78 80 83 85 89 93 95 98 97 81 52 26 14 13 16 17 19 20 20 20 21 20 18 17 17 18 18 18 19 20 22 25 28 28 29 29 30 31 32 32 33 35 37 38 37 38 39 41 43 47 50 54 57 61 66 68 66 68 77 93 104 95 80 81
78 82 88 93 89 82 83 84 79 68 57 54 60 64 65 64 64 66 68 71 74 79 82 86 91 95 97 99 101 100 87 58 30 16 14 16 18 19 20 21 20 21 21 18 17 17 18 18 18 18 19 22 25 27 28 29 29 30 31 32 33 34 35 36 37 39 38 39 40 42 44 49 53 57 60 62 66 68 70 74 82 93 102 100 92 91
76 84 91 93 88 86 89 85 72 60 53 56 64 66 64 65 67 70 75 78 82 86 89 92 96 98 100 103 100 86 60 31 16 15 17 18 19 20 21 21 21 20 18 17 17 18 18 19 19 19 21 24 27 28 29 30 30 31 32 34 36 37 38 38 38 38 38 39 41 43 46 50 55 59 63 65 66 66 66 73 88 100 105 101 97 98
69 77 88 97 96 89 80 68 59 57 58 60 63 64 66 70 74 78 83 86 88 91 94 96 96 97 101 100 84 56 30 17 15 17 18 19 21 21 21 21 20 19 18 17 18 18 19 19 20 21 23 26 29 30 31 30 31 32 33 36 38 40 41 41 39 39 39 40 42 45 49 53 57 61 65 68 70 69 64 62 73 91 104 106 102 100
Wind_Speed
19 20 21 21 20 18 18 19 20 20 21 22 22 23 24 26 28 25 25 27 26 25 24 20 19 19 20 22 21 21 24 26 24 20 15 18 22 23 23 21 19 17 16 16 17 17 17 17 16 15 14 14 14 14 14 14 16 18 20 23 25 27 29 31 32 34 37 39 41 42 44 45 47 48 50 52 54 55 56 56 56 56 56 55 54 53
20 22 21 19 18 18 18 19 20 21 22 22 21 23 24 26 28 26 24 24 21 21 20 18 19 19 21 24 23 21 21 19 16 12 11 17 21 23 22 21 19 18 18 18 19 19 19 18 16 15 15 15 15 15 16 17 19 21 23 25 27 29 31 34 36 38 40 42 44 46 48 49 51 52 54 56 56 55 55 54 54 54 53 53 53 52
20 20 18 17 19 19 19 19 19 20 20 21 21 23 25 25 26 24 20 18 18 19 20 19 19 19 22 24 21 17 15 12 11 9 10 15 20 22 21 21 21 21 21 20 20 19 18 17 16 15 15 15 16 16 18 19 21 23 25 28 30 33 35 37 39 42 44 45 47 50 52 53 55 55 56 57 56 55 54 52 51 51 51 52 52 52
19 19 18 19 19 18 18 17 18 19 20 20 20 22 25 24 22 20 18 17 18 20 20 19 18 17 19 20 16 12 10 10 8 8 12 16 19 21 22 22 22 22 21 20 19 17 16 15 14 14 14 15 17 18 20 21 23 26 28 31 34 36 38 40 43 45 47 49 50 52 53 54 55 55 55 54 54 53 52 51 50 50 50 50 51 51
19 18 18 17 16 17 18 18 18 20 21 20 19 21 22 20 18 19 19 19 20 20 18 16 13 11 13 14 12 9 7 7 7 10 15 19 21 22 23 23 22 21 20 18 17 16 14 13 13 13 15 17 19 20 22 24 26 29 32 34 37 39 41 43 46 48 50 51 52 52 52 52 52 52 52 52 52 51 51 51 50 50 50 50 50 50
18 16 16 17 17 19 18 18 17 18 21 21 18 17 18 18 17 17 18 20 20 17 12 11 7 4 8 11 9 5 5 6 10 15 18 21 23 23 23 22 21 20 19 17 16 14 13 12 13 14 16 18 20 22 24 27 29 32 35 37 40 42 44 46 48 50 51 51 52 52 52 52 53 53 52 52 53 52 52 52 52 51 50 50 49 49
16 15 15 16 17 18 18 17 17 17 19 20 18 15 16 17 17 17 18 19 17 14 14 16 10 5 5 7 5 5 8 11 16 20 21 23 23 23 23 21 20 19 18 16 14 13 13 13 15 16 19 21 23 25 28 30 33 36 38 40 43 45 47 48 49 50 50 50 50 51 52 52 53 54 54 53 53 53 53 53 52 51 50 49 49 49
15 15 16 17 18 18 18 17 15 15 16 17 16 14 15 17 17 18 18 18 20 22 24 24 17 11 6 5 7 12 15 16 21 24 23 24 23 23 22 20 19 18 16 15 13 13 14 15 17 19 21 24 26 29 31 34 37 39 41 43 45 47 48 49 49 49 49 50 51 51 52 52 52 53 53 53 53 53 53 53 52 51 50 49 48 48
15 16 16 17 17 16 15 14 13 13 13 15 16 17 18 17 17 18 19 22 24 22 22 20 13 9 5 9 13 16 19 21 24 26 25 25 23 22 21 19 18 16 15 14 14 15 16 17 19 22 25 27 29 32 35 38 40 42 45 46 47 48 48 48 49 49 49 50 51 51 52 52 51 51 51 51 51 51 51 51 51 50 49 48 48 47
16 16 15 16 14 12 12 12 11 12 14 17 19 19 18 17 19 22 22 23 17 11 16 18 12 8 3 12 20 20 22 24 26 27 25 24 23 22 21 18 17 16 15 15 16 17 18 20 23 25 28 31 33 36 39 41 43 45 47 48 48 48 49 49 50 50 50 50 50 50 49 49 49 49 49 49 50 50 49 49 48 48 47 47 46 46
16 14 15 13 10 11 13 12 11 15 19 20 18 17 17 19 21 22 19 14 7 5 10 11 12 11 3 12 22 21 23 25 26 27 26 24 23 21 20 18 16 16 15 16 17 18 20 23 25 28 31 34 37 39 41 43 45 47 48 48 48 49 49 50 51 51 50 50 49 48 48 49 49 49 50 50 50 49 49 49 49 48 48 47 46 46
14 15 13 8 9 15 15 12 15 21 21 16 14 15 17 17 15 12 9 5 2 3 5 4 10 11 4 10 21 21 22 25 26 27 26 25 23 21 19 17 16 16 17 18 19 21 23 25 28 31 34 37 39 41 44 45 47 48 48 49 49 49 50 50 50 50 49 49 48 48 49 49 50 50 50 51 50 50 50 49 49 48 48 48 47 47
17 14 8 7 13 17 14 15 21 21 16 12 13 15 13 9 6 4 3 2 4 5 3 3 7 7 4 8 18 21 22 24 25 25 24 23 21 20 18 17 17 18 19 20 21 24 27 29 31 34 37 40 42 44 45 46 47 48 48 49 49 50 50 50 49 49 49 49 49 50 50 50 50 50 51 51 51 50 50 49 48 47 47 47 46 47
21 13 7 11 16 17 17 23 24 17 13 14 16 15 7 1 3 4 3 2 5 5 4 5 4 5 5 7 13 19 22 25 26 24 23 22 21 19 19 19 19 19 20 22 25 27 30 32 35 38 40 42 44 45 46 47 47 48 48 49 49 49 49 49 49 49 49 50 50 50 50 50 50 50 50 50 50 50 50 50 49 49 48 47 47 47
16 9 9 15 19 20 22 22 18 15 16 16 15 11 8 6 3 4 4 2 4 4 5 7 5 4 6 8 13 19 22 25 25 24 23 22 21 20 19 19 18 20 23 25 28 31 34 37 39 41 43 44 45 46 47 47 48 48 48 49 49 49 48 48 49 49 49 48 48 48 48 48 48 48 49 49 49 49 49 50 50 50 49 49 48 48
11 9 15 21 22 22 19 15 14 15 14 12 11 10 11 12 10 9 9 9 7 6 5 7 5 5 9 12 17 21 23 25 24 23 23 21 21 20 19 19 20 23 26 28 31 35 38 40 42 43 44 45 46 47 48 48 49 49 49 49 49 48 48 48 48 47 47 46 46 46 46 46 46 47 47 48 48 48 48 49 49 50 50 49 50 50
10 16 22 23 22 18 15 14 13 15 14 13 15 15 14 15 14 13 12 10 6 4 4 7 5 7 10 12 19 23 23 25 25 23 23 22 21 19 19 21 24 27 30 33 36 39 41 42 43 43 45 47 48 49 49 50 50 49 49 49 48 48 47 46 46 46 45 45 45 46 46 46 46 47 47 48 48 48 48 49 49 50 50 50 50 51
16 26 28 23 18 16 16 17 17 17 17 16 17 17 15 14 13 11 6 4 2 2 4 7 9 14 14 11 19 27 24 24 25 23 22 21 21 21 23 25 28 31 33 37 40 42 43 43 44 46 48 49 50 51 51 50 49 48 48 47 47 46 46 45 45 45 45 46 46 46 47 47 47 48 48 48 49 49 49 49 50 50 50 50 51 51
21 26 26 21 16 17 21 22 20 18 16 16 18 18 16 11 9 7 4 2 2 2 3 4 8 15 18 16 21 28 27 25 24 22 20 21 21 23 26 28 31 34 37 40 42 44 44 44 46 48 50 51 51 51 50 49 48 47 46 45 45 44 44 44 44 44 45 45 46 46 47 47 48 48 49 49 49 50 50 51 51 51 51 51 52 52
22 18 18 20 20 22 24 21 19 20 19 21 20 18 16 12 11 10 8 5 3 2 2 2 2 6 16 19 20 25 27 24 22 21 20 22 23 26 29 31 34 36 39 42 45 45 44 46 49 50 51 52 51 51 49 48 46 45 44 43 43 43 43 43 43 44 44 45 45 46 47 47 48 48 49 49 50 51 51 52 53 54 54 54 55 55
23 14 18 26 26 24 22 19 21 24 23 22 18 14 11 9 10 11 11 11 9 4 1 2 3 2 11 14 16 22 25 23 22 21 21 23 26 29 32 34 36 39 42 45 46 45 46 48 50 51 51 51 50 49 47 46 45 43 42 42 42 42 43 43 43 44 44 45 46 47 47 48 49 49 50 51 52 52 53 54 54 55 55 56 57 57
22 17 23 30 29 26 25 22 22 20 17 14 12 9 7 7 10 8 8 10 10 8 3 3 4 3 9 13 15 21 23 23 22 22 23 27 30 33 35 36 40 43 45 47 46 45 47 50 51 51 51 51 49 47 46 44 43 42 41 41 42 42 43 44 45 45 46 46 47 48 49 50 51 51 52 53 53 54 55 55 56 56 57 57 58 58
23 20 23 27 27 27 25 18 13 10 9 8 7 8 9 12 15 10 6 8 10 11 10 6 3 4 10 15 17 20 22 22 22 24 26 30 33 35 37 39 42 45 46 46 45 46 49 51 51 51 51 49 47 45 44 43 42 41 42 42 43 44 44 45 46 46 47 48 49 50 51 51 52 53 53 54 54 55 55 56 56 57 58 58 58 59
21 17 20 27 30 27 18 10 7 7 10 13 13 14 16 18 19 15 14 16 15 14 13 7 2 5 12 16 18 20 22 23 23 25 29 33 35 37 39 42 45 47 46 44 45 48 50 50 50 49 48 46 44 43 42 42 42 42 42 43 44 45 45 46 47 48 48 49 50 51 52 52 53 53 54 54 55 56 56 56 57 57 58 58 59 59
17 14 18 23 22 19 12 8 11 16 19 21 21 22 24 23 20 18 19 18 14 12 11 6 2 4 11 15 18 20 22 23 25 28 32 35 37 40 42 45 46 46 44 45 48 50 50 49 48 47 45 44 43 42 42 42 42 43 43 44 45 46 46 47 49 50 50 51 52 52 53 54 54 54 55 56 56 57 57 58 58 59 59 59 60 60
17 17 18 15 9 9 10 10 17 25 27 26 25 24 24 22 18 15 14 12 7 7 10 8 5 8 12 15 16 18 21 24 28 33 35 37 40 43 45 45 45 44 46 49 50 50 49 48 46 45 43 43 42 42 43 43 43 44 44 45 46 47 48 49 51 52 52 53 54 54 55 55 56 57 57 58 58 59 59 60 60 60 61 61 61 61
19 19 19 15 13 16 19 21 24 28 28 27 24 21 20 20 19 14 11 10 9 11 13 11 8 11 13 14 15 19 24 29 33 36 38 41 44 45 45 44 45 48 51 52 51 50 48 46 45 43 42 42 42 42 43 43 44 45 46 47 48 49 50 51 52 53 54 55 55 56 57 58 59 59 60 60 61 61 61 62 62 62 62 62 62 62
21 21 18 16 17 20 22 26 27 23 21 23 24 23 21 19 18 13 10 11 11 10 10 9 10 13 16 18 21 25 30 33 37 40 42 45 46 45 44 45 49 52 53 52 50 49 47 45 43 43 42 42 42 42 43 44 45 46 47 48 49 51 52 53 53 54 55 57 57 58 59 60 61 61 62 62 63 63 63 63 63 63 63 63 63 63
20 20 19 19 21 22 23 25 23 18 19 23 24 23 19 15 13 11 9 11 11 10 10 13 16 19 22 25 28 31 35 39 42 43 44 45 44 44 45 49 53 54 52 50 49 47 45 43 42 42 42 42 43 44 44 45 46 47 48 50 51 52 53 54 55 56 57 58 59 60 61 62 62 63 63 64 64 64 64 64 63 63 63 62 62 62
19 19 21 21 24 26 24 20 19 19 22 24 21 17 14 12 11 10 10 12 13 13 15 19 22 25 28 30 33 37 42 44 45 44 43 44 44 46 50 53 54 52 49 48 47 45 43 42 41 42 42 43 44 45 46 47 48 49 50 51 52 53 54 55 56 57 58 59 61 62 62 63 63 63 63 63 64 64 63 63 63 62 62 61 60 59
20 21 21 22 27 29 23 19 20 22 23 22 16 12 11 11 11 11 13 15 17 19 21 25 27 30 32 36 40 43 45 45 45 44 44 46 48 51 53 53 51 49 47 46 45 43 42 41 41 42 43 44 45 47 48 49 49 50 51 52 53 54 55 57 58 59 60 61 61 62 62 63 62 62 62 62 62 62 61 61 60 60 59 59 58 57
20 21 22 24 28 29 26 23 22 22 23 18 10 10 13 13 14 16 17 19 22 25 28 30 32 35 38 42 45 45 45 45 45 44 46 50 53 53 53 51 49 48 46 45 44 43 41 41 42 43 44 46 47 48 49 50 51 52 53 53 55 56 57 58 59 60 61 61 61 61 61 61 61 60 60 60 60 60 59 59 58 57 57 56 55 54
20 21 24 25 25 28 28 24 23 23 18 10 8 14 17 18 20 22 21 23 26 28 31 34 36 39 42 44 45 45 45 44 44 46 51 54 54 53 51 49 46 44 43 43 43 42 41 42 43 44 46 47 48 50 51 52 52 53 54 55 56 57 58 59 60 60 61 60 60 60 60 60 59 59 58 58 58 57 57 56 55 55 54 54 53 52
21 23 26 24 22 27 28 26 25 17 6 5 13 18 18 20 24 26 27 28 30 32 34 36 38 40 42 43 43 43 43 43 46 51 53 54 54 52 49 45 42 42 42 42 41 41 41 42 43 45 46 48 49 50 51 52 53 53 55 56 57 58 59 60 60 60 60 59 59 59 58 58 58 57 56 56 56 55 55 54 53 53 53 52 52 51
23 25 26 24 22 24 25 24 18 7 5 13 18 14 15 22 25 28 31 32 34 36 37 37 38 40 40 40 40 41 44 47 51 52 52 52 51 48 45 42 41 41 41 40 40 40 41 42 44 45 47 48 49 50 51 52 53 54 55 56 58 59 59 59 59 58 58 58 57 57 56 56 56 56 55 55 54 54 53 52 52 51 51 51 50 50
25 25 25 24 21 19 20 18 11 9 15 19 13 10 19 27 31 34 37 38 38 37 36 35 37 39 39 40 42 45 50 52 52 51 50 49 47 44 42 41 40 40 40 40 40 41 41 43 45 46 48 49 50 51 52 53 54 55 56 57 58 58 58 58 57 57 57 56 55 55 55 55 55 54 54 53 53 52 51 51 50 50 50 50 49 48
25 25 24 22 16 14 17 18 17 16 15 10 8 15 26 33 36 36 38 41 39 34 33 37 40 41 42 45 47 49 51 53 52 50 47 45 44 42 41 39 39 39 40 40 40 41 42 43 45 47 48 49 50 52 53 54 55 56 56 57 57 56 56 56 56 55 55 54 54 54 53 53 53 53 53 52 52 51 50 50 49 49 49 49 48 47
24 22 21 18 15 15 17 17 14 10 7 6 11 22 31 34 34 33 36 38 34 31 36 42 43 45 46 47 49 51 52 53 52 48 46 45 43 41 40 39 39 39 39 39 40 41 43 44 45 47 48 49 50 52 53 54 55 55 55 55 55 55 55 54 54 53 53 53 52 52 52 52 52 52 52 51 51 50 49 49 48 48 48 48 47 45
22 20 20 17 15 17 18 13 7 5 7 8 16 29 37 36 35 34 30 28 30 36 43 45 45 46 47 49 51 52 52 52 51 48 47 46 44 42 41 40 39 39 39 40 41 42 44 45 46 47 48 49 50 51 53 54 54 54 54 54 53 54 53 53 52 52 51 51 51 51 51 51 51 51 50 50 49 48 48 48 47 47 47 46 44 43
22 21 21 18 15 18 19 15 11 11 12 12 20 34 40 38 38 30 18 23 38 45 45 45 46 47 48 50 51 50 48 48 49 47 46 45 44 42 41 41 40 40 40 40 42 43 44 45 46 47 48 49 50 52 53 54 53 53 53 53 53 53 52 51 51 50 50 50 50 50 50 50 50 49 49 48 48 47 46 47 46 46 45 43 41 40
24 22 21 18 17 19 18 17 18 16 14 17 27 39 41 40 36 26 22 33 45 44 43 45 47 48 49 49 49 48 46 45 45 44 44 43 42 41 40 40 40 40 41 42 43 44 44 44 45 46 48 49 51 52 53 53 52 52 52 52 52 52 51 51 50 50 49 49 49 49 49 49 48 48 47 47 46 45 45 45 45 45 44 42 39 38
24 23 21 18 18 19 18 20 20 16 17 26 37 42 42 38 33 32 36 42 42 41 45 47 46 47 49 47 47 47 45 43 42 42 41 41 40 40 39 39 39 39 40 41 42 43 44 44 45 46 48 49 50 51 52 52 51 51 51 51 51 51 51 50 49 49 48 48 48 48 48 47 46 46 45 45 45 44 44 43 43 43 42 40 37 35
22 21 18 16 18 19 18 16 12 14 25 37 42 42 42 39 37 38 41 41 40 43 46 45 46 48 47 46 46 45 43 42 41 40 39 38 38 38 37 37 38 39 40 41 42 43 44 46 47 47 48 49 50 50 51 50 50 50 50 51 51 50 50 49 49 48 47 47 47 46 46 46 45 44 43 43 43 44 43 42 42 42 40 38 35 32
21 20 16 15 16 16 15 14 14 22 35 44 44 43 44 42 41 40 41 42 44 45 45 46 46 45 45 45 45 43 42 42 40 39 38 36 36 36 36 37 38 39 41 42 43 44 46 47 48 48 48 49 49 49 49 49 49 49 49 50 50 50 49 48 47 47 46 46 46 45 45 44 43 43 42 42 42 42 42 41 41 41 39 36 32 30
21 20 17 17 18 18 20 23 27 33 41 45 47 48 47 45 44 42 42 44 45 45 46 46 45 44 44 45 44 43 42 41 39 38 37 36 36 36 37 38 39 40 41 42 43 45 46 47 48 48 48 47 47 47 47 48 49 49 49 49 50 49 49 48 47 46 46 46 45 45 44 43 42 41 41 41 41 42 41 40 40 40 39 35 30 27
21 19 17 19 23 26 27 29 33 37 42 47 50 50 49 48 46 44 43 44 45 45 46 46 45 45 45 44 44 43 42 41 40 37 35 35 36 36 37 39 39 40 42 43 44 45 46 47 48 48 47 46 46 46 46 47 49 49 49 49 49 49 49 48 47 46 46 45 45 44 43 43 42 41 40 39 40 40 40 39 38 38 38 34 29 26
20 20 21 24 27 30 31 33 37 41 45 48 50 49 48 47 45 44 45 45 46 46 46 45 45 45 44 44 44 43 41 40 38 35 34 35 36 37 38 39 39 41 42 43 45 46 47 48 48 47 47 46 46 46 47 48 48 48 48 48 48 48 48 47 46 46 45 45 44 43 43 42 41 41 40 38 38 38 38 36 36 36 36 34 30 26
21 23 26 27 29 31 33 36 41 45 47 47 46 46 45 45 45 45 45 46 46 46 45 44 44 44 44 43 43 41 40 37 35 34 34 35 36 38 39 39 41 42 43 44 45 46 47 48 48 47 46 46 45 46 47 48 48 48 47 47 47 47 47 46 45 45 44 44 44 43 42 42 41 41 40 38 38 38 37 35 34 34 34 33 31 29
24 25 26 29 32 33 35 40 45 49 48 46 44 44 45 46 46 46 46 46 46 45 44 44 43 43 42 41 40 39 36 33 33 33 34 35 38 39 39 40 42 43 43 45 45 46 47 48 47 46 46 45 45 46 47 47 47 47 46 46 46 46 46 46 45 44 44 43 43 42 41 41 40 40 40 39 37 36 35 34 33 32 32 30 28 28
24 25 26 29 33 36 39 43 47 48 48 46 45 45 46 46 46 46 46 45 45 44 44 44 43 42 41 39 37 35 33 32 33 34 35 37 38 39 40 41 42 43 44 45 45 46 47 46 46 45 45 44 45 45 46 47 46 46 46 46 46 46 46 46 45 44 43 42 42 41 41 41 40 40 39 39 38 36 34 32 29 29 30 28 26 25
25 26 26 28 33 37 41 43 43 44 45 45 45 45 46 45 45 45 44 45 44 44 44 43 42 41 39 36 33 33 32 33 34 35 36 37 38 39 41 42 43 44 45 45 46 46 46 45 45 44 44 43 44 45 45 46 46 46 45 45 46 46 46 46 45 44 43 41 41 41 41 41 40 40 39 38 38 36 34 31 27 24 24 25 25 24
Wind_Direction
291 290 291 296 297 291 284 283 284 288 290 291 290 288 287 286 287 292 294 293 294 292 291 294 294 301 302 292 284 282 282 284 286 284 261 229 228 235 240 243 244 243 238 229 223 221 222 223 224 225 226 229 233 242 251 260 268 274 277 279 282 285 289 292 294 295 296 297 297 298 298 299 300 301 302 304 305 306 306 306 306 306 305 304 303 302
292 292 297 299 294 289 288 287 286 288 290 290 290 289 287 286 290 295 294 293 293 289 292 296 298 302 297 290 292 290 284 283 285 279 240 221 223 229 235 237 236 234 228 222 220 220 222 223 224 228 234 241 247 255 262 267 273 279 282 285 289 293 297 299 300 301 302 303 303 303 303 303 304 305 305 305 305 305 306 306 307 306 305 304 303 301
294 297 301 297 294 294 292 289 289 290 291 291 292 290 288 291 296 297 295 294 293 292 295 298 300 300 292 290 293 289 282 283 282 264 229 220 223 224 227 229 228 226 222 219 218 220 224 226 230 237 245 253 261 267 272 278 283 288 291 294 297 300 302 303 304 306 306 307 308 308 309 308 307 306 306 305 305 305 305 306 306 306 304 303 302 300
300 302 300 297 297 295 293 294 295 293 292 292 292 291 291 297 300 296 296 297 294 296 298 299 300 294 287 287 287 282 285 287 274 244 215 210 216 218 217 219 220 220 218 217 217 220 225 231 237 246 255 264 270 277 283 289 293 296 298 299 301 303 305 306 307 308 309 310 311 311 310 309 308 306 305 304 304 304 305 305 305 305 303 302 300 299
306 304 301 301 299 297 298 299 297 294 292 291 292 293 295 298 298 293 296 296 295 296 296 299 300 282 272 280 284 285 288 276 238 212 202 200 206 212 212 213 213 214 214 214 217 220 226 236 247 256 266 273 278 285 293 298 300 302 302 303 304 306 308 309 310 310 310 311 311 310 308 307 305 304 303 302 302 303 304 304 304 304 303 301 299 297
309 306 304 304 302 301 302 300 299 297 295 297 298 299 298 299 298 294 295 298 299 300 295 301 313 274 269 285 292 285 257 227 202 196 196 196 202 206 208 208 207 208 210 212 217 223 233 246 258 267 275 281 287 293 300 302 303 304 305 307 308 309 310 311 311 311 311 311 311 309 308 306 304 303 303 303 304 304 304 303 303 303 302 301 299 296
312 311 310 308 306 304 302 301 303 300 299 303 306 305 302 301 299 295 295 298 299 295 289 291 284 244 261 287 272 217 214 203 190 193 195 195 198 201 204 204 203 205 209 214 221 229 244 256 266 276 282 289 296 301 304 305 306 307 308 309 310 311 311 311 312 312 312 311 310 309 307 306 306 305 305 305 306 306 305 305 304 303 302 300 298 295
315 317 316 311 307 304 302 304 305 303 304 305 309 311 306 302 298 294 294 293 292 291 289 287 270 243 230 230 212 198 199 193 188 192 194 194 197 199 201 202 203 207 212 220 231 242 254 265 276 285 290 295 302 305 306 306 307 308 308 310 311 312 312 312 312 312 311 310 308 307 306 305 305 305 306 306 306 306 305 305 304 304 302 300 298 296
320 320 318 311 309 308 309 312 312 311 312 311 315 315 307 302 295 293 293 290 292 292 290 284 253 227 212 194 194 194 197 192 187 191 193 194 197 198 201 204 206 212 221 231 243 254 265 277 287 293 297 301 305 305 306 306 307 309 310 312 313 313 313 313 312 310 309 308 307 306 305 305 305 305 306 306 305 305 305 305 304 304 303 301 299 296
324 325 323 316 313 317 319 318 317 320 319 315 314 310 303 300 296 296 294 291 291 280 279 278 231 197 189 190 188 190 199 199 193 193 194 195 197 200 204 209 214 223 233 244 254 264 277 289 296 300 303 305 306 306 308 309 310 311 312 313 314 313 313 311 310 309 309 308 307 307 306 307 307 307 307 307 307 307 307 306 306 305 304 301 299 296
329 327 324 318 317 324 321 313 314 320 319 314 310 307 304 303 300 296 290 287 294 258 269 272 216 198 199 195 193 195 204 209 205 200 198 198 201 205 210 216 225 236 246 256 266 276 289 298 301 303 304 305 307 308 310 310 311 313 314 314 314 313 312 310 310 310 310 309 309 310 310 311 312 311 311 310 310 310 309 309 308 307 306 304 301 298
335 329 322 320 322 325 318 305 312 319 318 314 309 309 309 308 302 292 281 259 234 252 268 244 201 206 213 195 199 203 209 212 212 209 204 203 206 210 218 227 236 248 257 265 275 286 295 299 300 302 304 306 307 308 310 311 313 314 314 313 312 311 311 310 311 311 311 312 313 314 315 315 314 314 313 313 312 311 310 310 309 308 307 305 303 300
340 337 328 327 327 327 318 309 315 318 317 314 308 309 312 318 320 295 267 214 226 251 247 188 194 215 231 201 201 208 212 210 210 211 210 210 214 219 227 237 247 256 263 273 284 292 296 297 299 303 306 308 309 311 313 315 315 315 314 312 311 311 311 312 313 313 314 316 316 316 316 315 315 314 314 313 312 312 312 311 310 308 306 304 302 299
343 346 340 333 330 328 320 315 317 317 316 311 304 305 298 319 1 299 266 278 275 260 213 198 212 225 219 201 201 204 206 206 208 211 214 218 222 229 238 246 254 264 272 282 291 295 298 300 305 309 311 313 314 316 317 317 315 314 313 313 313 313 314 314 315 316 317 317 317 316 315 315 314 314 313 313 313 313 313 312 310 308 307 304 302 298
337 331 331 332 327 323 318 315 314 312 312 306 301 301 274 253 275 263 250 258 268 275 247 235 241 219 195 192 196 197 198 202 207 212 218 224 230 237 245 252 263 276 284 290 296 301 305 309 313 315 316 318 318 318 317 316 315 315 315 315 315 315 316 316 317 316 316 315 315 315 314 314 314 313 313 313 313 312 311 310 309 307 306 304 301 298
317 300 322 326 321 320 316 311 310 310 313 305 299 299 279 273 271 259 270 272 267 303 280 228 222 213 197 189 190 195 200 203 208 215 221 228 234 240 250 260 274 284 290 297 304 310 315 316 318 318 319 319 318 318 318 317 317 317 317 316 316 316 316 316 315 314 314 313 313 313 313 313 313 313 313 312 311 310 309 308 306 305 304 302 299 297
302 301 319 324 320 320 317 312 309 308 308 297 293 293 286 285 278 266 277 283 273 305 259 198 171 172 181 189 195 198 204 207 212 219 224 230 237 246 261 272 282 291 299 308 313 317 319 318 319 320 320 320 320 319 319 318 318 317 316 316 315 315 314 313 312 313 313 314 314 314 314 313 313 312 311 310 310 309 307 306 304 303 301 299 297 295
310 308 319 326 322 321 320 314 308 305 303 296 292 295 292 287 275 257 267 309 303 279 249 207 182 178 178 190 201 202 206 211 215 221 228 237 248 260 274 284 294 304 311 316 319 319 319 319 321 322 322 321 321 320 319 317 316 316 315 314 313 312 312 312 314 314 315 315 315 314 314 313 312 311 310 309 309 307 305 304 302 300 299 297 296 294
320 312 317 324 322 320 319 314 311 309 303 299 297 296 293 280 268 251 240 304 293 258 281 227 195 199 204 207 203 203 208 213 218 227 238 253 266 277 290 300 309 315 318 319 319 319 320 322 324 322 321 320 319 317 316 314 314 314 313 312 311 312 313 314 315 315 315 314 314 313 312 311 311 310 309 308 307 305 304 303 301 300 298 297 295 294
322 309 304 313 316 316 318 316 314 310 304 303 300 296 289 272 268 266 248 257 258 250 290 268 241 211 212 221 219 209 209 216 227 241 255 270 284 295 305 312 316 318 319 320 320 321 322 323 322 320 318 317 315 314 313 312 312 312 312 311 312 313 313 314 314 313 313 313 312 311 310 310 309 308 307 306 305 305 303 303 302 301 300 299 297 296
322 303 286 304 314 316 319 319 312 307 304 303 299 298 296 279 279 278 267 269 265 245 178 236 289 217 193 214 225 216 215 224 238 254 271 286 299 308 313 316 318 320 322 322 320 320 321 319 317 316 315 314 312 312 312 311 312 312 312 313 313 313 313 313 313 313 313 312 312 311 310 310 309 309 308 307 307 306 305 304 303 302 301 300 299 298
322 303 288 301 314 319 321 318 310 307 309 303 293 291 291 294 306 298 273 275 268 256 252 248 276 237 193 201 211 217 225 235 249 266 285 299 308 313 316 318 320 321 321 319 316 316 316 315 314 314 313 312 312 311 311 312 313 313 313 313 313 314 314 314 315 314 314 314 313 313 312 312 311 311 310 309 308 306 305 304 303 302 301 300 299 298
321 309 295 301 313 319 322 323 317 319 331 328 308 287 279 298 311 298 269 291 290 277 274 268 271 241 222 221 219 224 235 244 259 277 292 303 310 313 316 317 317 317 314 312 312 314 314 313 313 313 312 311 311 311 312 313 314 314 314 315 315 316 316 316 315 315 315 315 314 314 313 313 312 311 310 309 308 307 305 304 303 302 301 300 299 298
323 314 306 309 316 322 329 341 338 332 334 328 315 298 292 301 305 290 278 290 290 280 272 266 256 221 230 240 242 245 252 257 269 285 297 304 308 310 311 312 312 311 309 310 311 312 312 312 312 312 311 311 311 312 313 314 315 315 316 316 317 316 316 316 316 316 316 316 315 314 314 312 312 311 310 309 308 307 306 305 304 303 302 301 300 299
323 316 315 318 323 331 341 348 331 324 321 314 306 303 304 305 302 291 284 285 280 274 268 257 253 245 247 260 263 262 265 269 280 294 301 305 307 308 309 309 309 307 307 309 310 310 311 312 313 313 313 313 314 315 315 316 316 316 317 317 316 316 317 317 318 318 317 317 316 315 314 313 313 312 311 310 309 308 307 306 305 304 303 302 301 300
322 317 319 318 313 314 316 319 321 319 315 310 306 307 309 309 308 298 285 273 254 272 282 274 283 290 281 280 277 273 276 284 295 302 305 307 306 306 307 307 307 307 309 312 312 313 315 315 315 315 314 315 315 316 316 316 316 316 316 317 317 318 319 319 319 319 318 318 317 316 316 315 314 313 312 311 310 309 308 307 306 305 304 303 301 300
324 321 323 317 301 300 307 315 321 317 311 310 311 311 312 312 311 303 283 265 264 288 295 286 286 297 298 294 288 288 293 299 303 305 305 306 305 306 308 309 311 314 315 316 316 316 316 316 316 315 315 315 315 315 316 316 316 317 318 319 320 321 321 321 320 320 319 319 318 317 316 316 315 314 313 312 311 310 309 308 307 306 305 304 302 301
325 324 327 324 316 316 319 321 321 315 310 313 316 318 318 314 306 294 276 273 283 296 300 297 303 309 307 304 301 301 304 305 306 306 307 307 308 310 312 313 315 316 316 315 314 315 316 316 316 315 315 315 314 315 315 316 318 319 320 321 322 322 321 321 321 320 320 319 319 318 317 316 316 315 314 313 311 310 309 308 307 306 305 304 303 302
328 326 329 328 324 326 329 325 322 318 316 317 319 320 321 313 301 293 288 291 297 302 302 303 309 311 309 308 309 308 309 309 308 309 309 309 310 311 312 313 314 314 314 313 314 315 316 315 314 314 314 314 315 316 317 318 319 321 322 322 322 322 322 322 321 321 320 320 319 318 317 316 316 315 314 313 312 311 310 309 308 307 306 305 304 302
332 329 332 329 324 328 333 329 321 316 315 317 319 320 319 312 304 303 303 304 304 304 306 308 310 312 312 312 312 311 310 309 308 309 309 310 311 311 312 313 314 314 314 314 315 316 315 314 314 315 315 316 317 318 319 320 321 322 323 323 323 323 322 322 321 321 320 320 319 318 317 317 316 315 315 314 313 312 311 310 309 308 307 305 304 303
335 331 333 329 323 328 336 330 318 315 315 317 319 317 317 315 313 316 316 314 314 314 315 315 315 315 315 314 313 311 309 308 308 309 310 311 312 312 313 314 315 315 316 316 316 316 315 315 316 317 317 318 318 319 320 321 322 323 323 323 323 323 322 322 322 321 321 320 319 318 318 317 317 316 315 314 313 313 312 311 310 308 307 306 305 304
337 332 334 332 323 326 335 332 324 322 316 313 315 324 331 334 333 333 330 324 324 323 322 321 320 319 318 316 314 311 308 308 309 310 310 311 313 314 316 317 317 317 317 316 316 316 317 318 318 318 319 319 320 320 321 323 323 324 324 324 324 323 323 322 322 321 321 320 320 319 319 318 317 317 316 315 314 313 313 312 311 309 308 307 306 305
339 334 336 335 323 323 333 333 328 325 316 311 332 336 339 346 343 339 335 328 327 326 324 323 322 319 317 314 311 309 308 308 308 309 311 313 315 317 318 318 317 316 315 315 316 317 319 320 320 321 321 321 322 322 323 324 325 325 325 324 324 323 323 322 322 322 322 321 321 321 320 319 318 318 317 316 315 314 314 313 312 311 309 308 308 307
340 336 336 335 321 320 330 333 331 330 320 322 332 333 342 350 344 337 332 328 327 326 325 324 321 318 314 311 308 307 306 306 308 311 314 316 317 318 317 316 315 314 314 315 316 318 320 321 322 322 322 322 323 323 324 324 324 324 324 324 324 323 323 323 323 323 323 323 322 321 320 320 319 318 318 317 316 316 315 314 313 312 312 311 310 310
338 336 335 335 324 318 328 340 343 342 319 322 325 333 350 350 341 331 328 328 329 328 327 324 320 317 312 308 306 305 305 308 312 315 317 316 315 315 314 314 314 314 314 315 317 319 321 322 322 322 322 323 323 324 324 324 324 324 324 324 324 324 323 324 324 324 324 323 322 322 321 320 319 319 319 318 318 317 317 316 315 314 313 313 313 313
340 338 336 336 331 323 332 344 340 310 312 320 327 348 353 348 341 334 330 330 331 329 326 324 320 316 312 308 307 308 310 313 315 316 315 313 312 312 312 313 313 314 315 317 319 321 322 323 323 323 324 324 324 324 324 324 325 325 325 324 324 324 324 324 324 324 324 323 323 322 321 321 321 320 320 320 320 320 320 318 317 316 315 315 315 316
341 339 336 337 334 327 329 329 319 312 313 319 349 1 354 346 340 335 329 326 327 327 326 323 319 314 312 311 311 312 313 314 315 315 314 313 313 314 314 314 315 316 318 319 321 322 323 324 324 324 325 325 325 325 324 324 324 324 324 324 324 324 324 324 324 324 324 324 324 323 323 323 323 323 323 323 323 322 321 320 319 319 318 317 318 318
343 341 339 335 326 322 327 327 322 320 315 325 357 358 350 341 337 332 323 320 325 327 323 319 316 314 315 314 314 314 315 315 316 317 318 317 317 317 317 317 318 319 320 321 321 322 324 325 325 325 325 325 325 324 323 323 323 323 323 323 323 324 324 325 325 325 325 325 325 325 325 325 326 326 325 325 324 324 323 321 321 321 320 320 320 320
348 343 339 334 323 323 330 328 315 305 308 324 346 348 343 339 336 331 321 317 323 323 319 317 318 317 317 316 315 317 318 318 319 320 321 320 320 320 320 320 320 321 321 322 323 324 325 325 325 325 325 324 323 322 322 323 323 324 324 325 325 325 325 326 326 327 327 327 327 327 327 327 328 327 327 326 325 325 324 323 323 323 322 323 323 323
351 347 345 340 330 331 335 330 316 311 312 319 333 337 338 338 335 331 319 316 322 322 318 319 319 317 316 316 317 318 320 320 320 321 321 320 320 321 321 321 321 322 322 323 324 325 325 325 325 324 323 322 322 323 323 324 325 326 326 326 326 326 327 328 328 329 329 328 328 328 328 329 328 328 327 327 326 326 326 326 325 324 323 325 326 325
350 349 349 342 334 337 339 332 323 316 310 317 328 334 336 336 333 326 315 317 320 319 317 318 317 316 317 318 318 319 320 319 319 319 319 319 319 319 320 320 322 323 324 325 325 325 324 324 323 323 323 324 324 324 324 325 326 327 328 328 327 327 328 329 330 330 330 329 329 329 329 329 329 328 328 327 327 327 328 328 327 325 325 327 328 327
346 345 345 339 335 338 336 330 325 317 313 323 330 334 336 333 326 320 319 319 318 316 317 317 317 317 319 319 319 319 319 318 318 318 318 318 318 318 319 320 321 322 323 324 323 323 322 323 323 325 325 326 325 325 325 326 327 329 329 328 328 329 330 331 331 330 330 330 330 329 329 329 329 329 329 328 328 329 329 329 328 327 327 329 329 327
339 339 341 336 332 333 333 332 328 316 322 330 334 335 334 330 324 321 322 321 318 317 318 318 319 320 320 319 319 318 318 318 318 318 318 317 317 318 319 320 322 323 323 323 323 323 323 324 325 327 327 327 326 326 326 327 328 329 329 329 329 330 331 331 331 331 331 331 330 330 330 330 330 330 330 330 330 330 330 330 329 327 328 331 330 327
335 336 337 330 328 329 327 324 317 316 325 333 335 333 332 330 327 326 323 321 321 320 319 320 320 320 318 318 318 318 318 318 318 318 318 318 319 320 321 322 324 324 324 324 324 325 325 326 327 328 328 327 327 327 327 328 329 330 330 330 330 331 331 331 332 332 332 332 331 330 330 330 330 331 332 332 331 331 332 332 330 328 329 332 332 328
334 334 330 322 317 315 314 314 315 319 326 332 333 331 330 329 329 328 324 322 322 321 320 320 319 318 318 318 318 319 319 319 319 321 321 321 322 322 323 325 325 325 325 325 325 326 326 327 327 328 328 328 328 328 329 329 330 331 331 331 331 331 331 332 333 333 333 332 332 331 331 331 331 332 334 334 334 333 334 333 331 328 329 333 334 329
334 331 324 317 315 314 315 317 318 320 324 328 329 328 328 328 329 328 325 322 321 321 320 320 320 320 320 320 320 320 321 320 321 323 324 324 324 324 325 326 325 325 326 326 326 326 326 327 328 328 328 329 329 330 330 331 331 332 332 332 332 331 332 334 335 334 334 333 332 332 332 332 332 333 335 336 336 335 336 335 332 330 330 332 334 330
333 327 321 319 319 318 318 320 320 320 322 325 326 327 327 327 327 326 324 322 322 321 321 321 321 321 321 320 320 321 321 321 323 325 325 324 324 325 326 326 326 326 326 326 327 327 327 328 328 328 329 330 331 331 331 332 333 333 333 333 332 332 333 335 335 335 334 334 334 333 333 333 333 334 336 337 337 337 337 337 335 332 331 332 332 331
332 329 325 322 320 319 318 320 321 321 322 325 327 327 327 327 326 325 324 323 322 322 321 321 320 320 320 320 320 321 321 323 324 325 325 325 325 326 326 326 326 327 327 328 328 328 328 328 329 330 330 331 332 332 332 332 333 333 333 333 333 333 334 335 336 336 335 335 335 334 334 334 334 335 336 338 339 338 338 339 337 334 333 333 332 331
333 329 326 321 320 321 323 324 323 323 325 330 331 329 328 328 327 326 325 323 322 322 321 321 321 321 322 322 322 321 322 324 325 326 326 326 326 326 327 327 327 328 328 328 328 328 329 329 329 330 331 332 332 332 332 332 333 334 334 334 333 334 335 336 336 336 336 336 336 335 335 336 336 335 336 338 339 340 340 342 340 336 334 335 333 331
333 328 325 322 321 323 326 326 325 326 329 333 332 329 328 328 327 325 324 323 324 324 323 323 324 324 324 324 323 323 324 326 327 327 327 327 327 326 327 327 327 328 328 328 328 329 329 329 330 331 331 332 331 331 332 333 334 335 335 335 335 335 336 336 336 337 337 338 337 337 337 337 337 337 337 338 338 339 341 344 345 341 336 335 334 329
335 333 329 323 321 322 325 326 327 328 330 331 331 329 328 327 326 325 325 325 326 326 325 325 326 326 326 325 325 324 326 327 327 327 327 327 327 327 327 328 328 328 328 329 329 329 329 329 330 331 331 331 331 332 334 335 335 336 336 336 336 337 336 336 336 337 338 339 339 339 338 338 338 338 338 338 338 339 339 341 346 348 343 338 334 327